Dai15hakuryomaru — JD2439 — position and weather

sailwx.info

Track history (hours):
 
Tides and Currents Weather Stations Pressure Air Temp Water Temp Dewpoint Dewpoint Depression Visibility Wind Speed Wind Dir Waves Ship Positions

Dai15hakuryomaru

Last reported at 2014-Jul-26 06:11 UTC. Time now 2014-Jul-26 17:15 UTC.
Position N 35°24' E 140°38'.

Length 80 m; draft 5.4 m.

Type: Tanker. MMSI: 431000243.

Date/timePositionNaut miles runAvg speedWind from/ knotsBaromVisibWave heightAir tempDewpointWater temp
2014-Jul-26 06:11N 35°24' E 140°38'812.2
2014-Jul-26 05:33N 35°30' E 140°44'25 4.0
2014-Jul-25 23:21N 35°55' E 140°41'2 0.9
2014-Jul-25 21:13N 35°57' E 140°42'0 0.0
2014-Jul-25 20:30N 35°57' E 140°42'0 0.0
2014-Jul-25 18:32N 35°57' E 140°42'0 0.0
2014-Jul-25 17:33N 35°57' E 140°42'0 0.0
2014-Jul-25 16:32N 35°57' E 140°42'0 0.0
2014-Jul-25 15:32N 35°57' E 140°42'2 0.5
2014-Jul-25 10:33N 35°55' E 140°41'0 0.1
2014-Jul-25 09:33N 35°55' E 140°41'0 0.0
2014-Jul-25 08:31N 35°55' E 140°41'0 0.0
2014-Jul-25 07:28N 35°55' E 140°41'0 0.0
2014-Jul-25 04:24N 35°55' E 140°41'2 2.5
2014-Jul-25 03:30N 35°57' E 140°42'0 0.0
2014-Jul-25 02:33N 35°57' E 140°42'0 0.0
2014-Jul-25 01:19N 35°57' E 140°42'0 0.0
2014-Jul-25 00:17N 35°57' E 140°42'0 0.0
2014-Jul-24 23:33N 35°57' E 140°42'0 0.0
2014-Jul-24 22:33N 35°57' E 140°42'0 0.0
2014-Jul-24 21:33N 35°57' E 140°42'0 0.0
2014-Jul-24 20:33N 35°57' E 140°42'0 0.0
2014-Jul-24 19:33N 35°57' E 140°42'0 0.0
2014-Jul-24 18:33N 35°57' E 140°42'0 0.0
2014-Jul-24 17:33N 35°57' E 140°42'0 0.0
2014-Jul-24 16:33N 35°57' E 140°42'0 0.0
2014-Jul-24 15:33N 35°57' E 140°42'0 0.0
2014-Jul-24 14:33N 35°57' E 140°42'5 5.1
2014-Jul-24 13:32N 35°54' E 140°47'1512.8
2014-Jul-24 12:21N 35°40' E 140°54'1013.1
2014-Jul-24 11:33N 35°31' E 140°47'1612.9
2014-Jul-24 10:17N 35°18' E 140°35'1413.3
2014-Jul-24 09:13N 35°07' E 140°24'1015.4
2014-Jul-24 08:33N 35°01' E 140°14'1614.5
2014-Jul-24 07:28N 34°53' E 139°58'1313.9
2014-Jul-24 06:32N 34°50' E 139°42'20 0.8
2014-Jul-23 06:12N 34°58' E 139°20'711.8
2014-Jul-23 05:34N 35°02' E 139°28'1212.4
2014-Jul-23 04:34N 35°07' E 139°42'1110.8
2014-Jul-23 03:34N 35°18' E 139°44'1110.5
2014-Jul-23 02:34N 35°28' E 139°49'1110.9
2014-Jul-23 01:33N 35°30' E 140°02'0 0.1
2014-Jul-23 00:33N 35°30' E 140°02'0 0.0
2014-Jul-22 23:33N 35°30' E 140°02'3 2.8
2014-Jul-22 22:34N 35°31' E 139°59'0 0.0
2014-Jul-22 21:33N 35°31' E 139°59'0 0.0
2014-Jul-22 20:34N 35°31' E 139°59'0 0.0
2014-Jul-22 19:34N 35°31' E 139°59'0 0.0
2014-Jul-22 18:34N 35°31' E 139°59'0 0.0
2014-Jul-22 17:34N 35°31' E 139°59'0 0.0
2014-Jul-22 16:33N 35°31' E 139°59'0 0.0
2014-Jul-22 15:34N 35°31' E 139°59'0 0.0
2014-Jul-22 14:34N 35°31' E 139°59'8 8.0
2014-Jul-22 13:33N 35°27' E 139°50'1211.9
2014-Jul-22 12:33N 35°16' E 139°47'1313.2
2014-Jul-22 11:33N 35°03' E 139°42'1515.3
2014-Jul-22 10:33N 34°54' E 139°27'40 7.4
2014-Jul-22 05:07N 35°09' E 138°42'  
2014-Jul-17 08:27N 34°49' E 139°09'2311.8
2014-Jul-17 06:33N 35°03' E 139°31'1212.6
2014-Jul-17 05:33N 35°10' E 139°44'1212.0
2014-Jul-17 04:33N 35°21' E 139°42'1312.8
2014-Jul-17 03:33N 35°30' E 139°54'7 6.8
2014-Jul-17 02:33N 35°30' E 140°02'0 0.0
2014-Jul-17 01:33N 35°30' E 140°02'0 0.0
2014-Jul-17 00:33N 35°30' E 140°02'2 2.2
2014-Jul-16 23:33N 35°31' E 139°59'1 1.1
2014-Jul-16 22:33N 35°31' E 139°58'0 0.0
2014-Jul-16 21:33N 35°31' E 139°58'0 0.0
2014-Jul-16 20:33N 35°31' E 139°58'0 0.0
2014-Jul-16 19:33N 35°31' E 139°58'0 0.0
2014-Jul-16 18:33N 35°31' E 139°58'0 0.0
2014-Jul-16 17:33N 35°31' E 139°58'0 0.0
2014-Jul-16 16:33N 35°31' E 139°58'0 0.0
2014-Jul-16 15:33N 35°31' E 139°58'0 0.4
2014-Jul-16 14:33N 35°31' E 139°58'1312.8
2014-Jul-16 13:33N 35°23' E 139°46'1212.3
2014-Jul-16 12:33N 35°10' E 139°47'1313.1
2014-Jul-16 11:33N 34°58' E 139°45'1110.3
2014-Jul-16 10:27N 34°53' E 139°57'4812.2
2014-Jul-16 06:33N 35°25' E 140°40'  
Track history (hours):
 
Tides and Currents Weather Stations Pressure Air Temp Water Temp Dewpoint Dewpoint Depression Visibility Wind Speed Wind Dir Waves Ship Positions

Dai15hakuryomaru

Last reported at 2014-Jul-26 06:11 UTC. Time now 2014-Jul-26 17:15 UTC.
Position N 35°24' E 140°38'.

Length 80 m; draft 5.4 m.

Type: Tanker. MMSI: 431000243.

Date/timePositionNaut miles runAvg speedWind from/ knotsBaromVisibWave heightAir tempDewpointWater temp
2014-Jul-26 06:11N 35°24' E 140°38'812.2
2014-Jul-26 05:33N 35°30' E 140°44'25 4.0
2014-Jul-25 23:21N 35°55' E 140°41'2 0.9
2014-Jul-25 21:13N 35°57' E 140°42'0 0.0
2014-Jul-25 20:30N 35°57' E 140°42'0 0.0
2014-Jul-25 18:32N 35°57' E 140°42'0 0.0
2014-Jul-25 17:33N 35°57' E 140°42'0 0.0
2014-Jul-25 16:32N 35°57' E 140°42'0 0.0
2014-Jul-25 15:32N 35°57' E 140°42'2 0.5
2014-Jul-25 10:33N 35°55' E 140°41'0 0.1
2014-Jul-25 09:33N 35°55' E 140°41'0 0.0
2014-Jul-25 08:31N 35°55' E 140°41'0 0.0
2014-Jul-25 07:28N 35°55' E 140°41'0 0.0
2014-Jul-25 04:24N 35°55' E 140°41'2 2.5
2014-Jul-25 03:30N 35°57' E 140°42'0 0.0
2014-Jul-25 02:33N 35°57' E 140°42'0 0.0
2014-Jul-25 01:19N 35°57' E 140°42'0 0.0
2014-Jul-25 00:17N 35°57' E 140°42'0 0.0
2014-Jul-24 23:33N 35°57' E 140°42'0 0.0
2014-Jul-24 22:33N 35°57' E 140°42'0 0.0
2014-Jul-24 21:33N 35°57' E 140°42'0 0.0
2014-Jul-24 20:33N 35°57' E 140°42'0 0.0
2014-Jul-24 19:33N 35°57' E 140°42'0 0.0
2014-Jul-24 18:33N 35°57' E 140°42'0 0.0
2014-Jul-24 17:33N 35°57' E 140°42'0 0.0
2014-Jul-24 16:33N 35°57' E 140°42'0 0.0
2014-Jul-24 15:33N 35°57' E 140°42'0 0.0
2014-Jul-24 14:33N 35°57' E 140°42'5 5.1
2014-Jul-24 13:32N 35°54' E 140°47'1512.8
2014-Jul-24 12:21N 35°40' E 140°54'1013.1
2014-Jul-24 11:33N 35°31' E 140°47'1612.9
2014-Jul-24 10:17N 35°18' E 140°35'1413.3
2014-Jul-24 09:13N 35°07' E 140°24'1015.4
2014-Jul-24 08:33N 35°01' E 140°14'1614.5
2014-Jul-24 07:28N 34°53' E 139°58'1313.9
2014-Jul-24 06:32N 34°50' E 139°42'20 0.8
2014-Jul-23 06:12N 34°58' E 139°20'711.8
2014-Jul-23 05:34N 35°02' E 139°28'1212.4
2014-Jul-23 04:34N 35°07' E 139°42'1110.8
2014-Jul-23 03:34N 35°18' E 139°44'1110.5
2014-Jul-23 02:34N 35°28' E 139°49'1110.9
2014-Jul-23 01:33N 35°30' E 140°02'0 0.1
2014-Jul-23 00:33N 35°30' E 140°02'0 0.0
2014-Jul-22 23:33N 35°30' E 140°02'3 2.8
2014-Jul-22 22:34N 35°31' E 139°59'0 0.0
2014-Jul-22 21:33N 35°31' E 139°59'0 0.0
2014-Jul-22 20:34N 35°31' E 139°59'0 0.0
2014-Jul-22 19:34N 35°31' E 139°59'0 0.0
2014-Jul-22 18:34N 35°31' E 139°59'0 0.0
2014-Jul-22 17:34N 35°31' E 139°59'0 0.0
2014-Jul-22 16:33N 35°31' E 139°59'0 0.0
2014-Jul-22 15:34N 35°31' E 139°59'0 0.0
2014-Jul-22 14:34N 35°31' E 139°59'8 8.0
2014-Jul-22 13:33N 35°27' E 139°50'1211.9
2014-Jul-22 12:33N 35°16' E 139°47'1313.2
2014-Jul-22 11:33N 35°03' E 139°42'1515.3
2014-Jul-22 10:33N 34°54' E 139°27'40 7.4
2014-Jul-22 05:07N 35°09' E 138°42'  
2014-Jul-17 08:27N 34°49' E 139°09'2311.8
2014-Jul-17 06:33N 35°03' E 139°31'1212.6
2014-Jul-17 05:33N 35°10' E 139°44'1212.0
2014-Jul-17 04:33N 35°21' E 139°42'1312.8
2014-Jul-17 03:33N 35°30' E 139°54'7 6.8
2014-Jul-17 02:33N 35°30' E 140°02'0 0.0
2014-Jul-17 01:33N 35°30' E 140°02'0 0.0
2014-Jul-17 00:33N 35°30' E 140°02'2 2.2
2014-Jul-16 23:33N 35°31' E 139°59'1 1.1
2014-Jul-16 22:33N 35°31' E 139°58'0 0.0
2014-Jul-16 21:33N 35°31' E 139°58'0 0.0
2014-Jul-16 20:33N 35°31' E 139°58'0 0.0
2014-Jul-16 19:33N 35°31' E 139°58'0 0.0
2014-Jul-16 18:33N 35°31' E 139°58'0 0.0
2014-Jul-16 17:33N 35°31' E 139°58'0 0.0
2014-Jul-16 16:33N 35°31' E 139°58'0 0.0
2014-Jul-16 15:33N 35°31' E 139°58'0 0.4
2014-Jul-16 14:33N 35°31' E 139°58'1312.8
2014-Jul-16 13:33N 35°23' E 139°46'1212.3
2014-Jul-16 12:33N 35°10' E 139°47'1313.1
2014-Jul-16 11:33N 34°58' E 139°45'1110.3
2014-Jul-16 10:27N 34°53' E 139°57'4812.2
2014-Jul-16 06:33N 35°25' E 140°40'  

Dump ship's entire track history